Location: Izdebno
(52.6670°N, 16.2170°E)
Time: 03:04:20
(UTC+02:00)

Tiros 1 - Pass Details

Date: 27 February 2024
Orbit: 625 x 657 km, 48.4° (Epoch: 16 April)

Event Time Altitude Azimuth Distance (km) Brightness Sun altitude
Rises 20:32:58 0° 225° (SW) 2,971 10.8 -28.0°
Reaches altitude 10° 20:35:31 10° 215° (SW) 2,064 9.8 -28.4°
Enters shadow 20:35:35 10° 214° (SW) 2,039 9.8 -28.4°
